| time (UTC) | temp C | wind direction | speed KPH | gust KPH | rain 1hr cm | rain 24hr cm | rain mn cm | humidity % | barometer mb |
| 20260504190015 | 16 | 270 | 4.8 | 12.9 | 0.00 | 0.00 | 0.00 | 38 | 1011.2 |
| 20260504185535 | 16 | 293 | 6.4 | 16.1 | 0.00 | 0.00 | 0.00 | 39 | 1011.3 |
| 20260504185035 | 16 | 270 | 1.6 | 6.4 | 0.00 | 0.00 | 0.00 | 39 | 1011.5 |
| 20260504184515 | 16 | 23 | 4.8 | 11.3 | 0.00 | 0.00 | 0.00 | 38 | 1011.7 |
| 20260504184016 | 17 | 23 | 9.7 | 19.3 | 0.00 | 0.00 | 0.00 | 36 | 1011.8 |
| 20260504183515 | 17 | 45 | 9.7 | 24.1 | 0.00 | 0.00 | 0.00 | 40 | 1011.8 |
| 20260504183015 | 17 | 68 | 11.3 | 24.1 | 0.00 | 0.00 | 0.00 | 39 | 1011.8 |
| 20260504182515 | 17 | 68 | 8.0 | 20.9 | 0.00 | 0.00 | 0.00 | 40 | 1011.9 |
| 20260504182035 | 17 | 293 | 11.3 | 19.3 | 0.00 | 0.00 | 0.00 | 40 | 1012.0 |
| 20260504181515 | 17 | 225 | 9.7 | 17.7 | 0.00 | 0.00 | 0.00 | 38 | 1012.2 |
| 20260504181015 | 16 | 180 | 9.7 | 19.3 | 0.00 | 0.00 | 0.00 | 35 | 1012.2 |
| 20260504180516 | 17 | 180 | 8.0 | 20.9 | 0.00 | 0.00 | 0.00 | 41 | 1012.1 |
| 20260504180015 | 16 | 203 | 8.0 | 16.1 | 0.00 | 0.00 | 0.00 | 41 | 1012.3 |
| 20260504175515 | 17 | 270 | 9.7 | 22.5 | 0.00 | 0.00 | 0.00 | 38 | 1012.3 |
| 20260504175015 | 16 | 225 | 9.7 | 17.7 | 0.00 | 0.00 | 0.00 | 39 | 1012.5 |
| 20260504174515 | 16 | 225 | 6.4 | 14.5 | 0.00 | 0.00 | 0.00 | 41 | 1012.5 |
| 20260504174015 | 16 | 180 | 4.8 | 14.5 | 0.00 | 0.00 | 0.00 | 38 | 1012.6 |
| 20260504173516 | 16 | 248 | 4.8 | 11.3 | 0.00 | 0.00 | 0.00 | 43 | 1012.7 |
| 20260504173015 | 16 | 135 | 4.8 | 12.9 | 0.00 | 0.00 | 0.00 | 42 | 1012.8 |
| 20260504172535 | 16 | 180 | 3.2 | 8.0 | 0.00 | 0.00 | 0.00 | 37 | 1012.9 |
| 20260504172015 | 16 | 203 | 4.8 | 8.0 | 0.00 | 0.00 | 0.00 | 41 | 1013.0 |
| 20260504171515 | 16 | 113 | 1.6 | 8.0 | 0.00 | 0.00 | 0.00 | 44 | 1013.0 |
| 20260504171035 | 15 | 113 | 3.2 | 9.7 | 0.00 | 0.00 | 0.00 | 43 | 1013.2 |
| 20260504170516 | 15 | 113 | 3.2 | 9.7 | 0.00 | 0.00 | 0.00 | 42 | 1013.1 |
| 20260504151015 | 8 | 0.0 | 4.8 | 0.00 | 0.00 | 0.00 | 55 | 1013.8 | |
| 20260504150515 | 8 | 0.0 | 3.2 | 0.00 | 0.00 | 0.00 | 56 | 1013.9 | |
| 20260504141037 | 3 | 0.0 | 0.0 | 0.00 | 0.00 | 0.00 | 70 | 1014.1 | |
| 20260504140517 | 2 | 0.0 | 0.0 | 0.00 | 0.00 | 0.00 | 72 | 1014.1 | |
| 20260504130537 | 0 | 0.0 | 0.0 | 0.00 | 0.00 | 0.00 | 79 | 1014.2 | |
| 20260504110536 | 0 | 45 | 4.8 | 8.0 | 0.00 | 0.00 | 0.00 | 78 | 1013.5 |
| 20260504100536 | -1 | 0.0 | 0.0 | 0.00 | 0.00 | 0.00 | 77 | 1013.0 | |
| 20260504081516 | 0 | 0.0 | 0.0 | 0.00 | 0.00 | 0.00 | 71 | 1013.4 | |
| 20260504081016 | 0 | 0.0 | 0.0 | 0.00 | 0.00 | 0.00 | 70 | 1013.4 | |
| 20260504080517 | 0 | 0.0 | 0.0 | 0.00 | 0.00 | 0.00 | 71 | 1013.5 | |
| 20260504050516 | 4 | 0.0 | 0.0 | 0.00 | 0.00 | 0.00 | 53 | 1014.1 | |
| 20260504045516 | 5 | 0.0 | 1.6 | 0.00 | 0.00 | 0.00 | 52 | 1014.1 | |
| 20260504045017 | 5 | 0.0 | 0.0 | 0.00 | 0.00 | 0.00 | 52 | 1014.2 | |
| 20260504044516 | 5 | 0.0 | 1.6 | 0.00 | 0.00 | 0.00 | 51 | 1014.2 | |
| 20260504044016 | 5 | 0.0 | 0.0 | 0.00 | 0.00 | 0.00 | 50 | 1014.3 | |
| 20260504043516 | 5 | 0.0 | 0.0 | 0.00 | 0.00 | 0.00 | 49 | 1014.3 | |
| 20260504043017 | 5 | 0.0 | 0.0 | 0.00 | 0.00 | 0.00 | 48 | 1014.2 | |
| 20260504042537 | 6 | 45 | 3.2 | 6.4 | 0.00 | 0.00 | 0.00 | 48 | 1014.3 |
| 20260504042016 | 6 | 45 | 3.2 | 8.0 | 0.00 | 0.00 | 0.00 | 48 | 1014.2 |
| 20260504041516 | 6 | 0.0 | 0.0 | 0.00 | 0.00 | 0.00 | 47 | 1014.2 | |
| 20260504041016 | 6 | 0.0 | 0.0 | 0.00 | 0.00 | 0.00 | 48 | 1014.3 | |
| 20260504040536 | 6 | 0.0 | 0.0 | 0.00 | 0.00 | 0.00 | 48 | 1014.2 | |
| 20260504040016 | 6 | 0.0 | 0.0 | 0.00 | 0.00 | 0.00 | 48 | 1014.3 | |
| 20260504035516 | 6 | 0.0 | 0.0 | 0.00 | 0.00 | 0.00 | 46 | 1014.3 | |
| 20260504035016 | 7 | 0.0 | 0.0 | 0.00 | 0.00 | 0.00 | 47 | 1014.2 | |
| 20260504034516 | 7 | 0.0 | 0.0 | 0.00 | 0.00 | 0.00 | 45 | 1014.2 | |
| 20260504034037 | 7 | 0.0 | 1.6 | 0.00 | 0.00 | 0.00 | 44 | 1014.2 | |
| 20260504033516 | 7 | 270 | 1.6 | 4.8 | 0.00 | 0.00 | 0.00 | 43 | 1014.2 |
| 20260504033016 | 8 | 0.0 | 1.6 | 0.00 | 0.00 | 0.00 | 43 | 1014.2 | |
| 20260504032516 | 8 | 0.0 | 0.0 | 0.00 | 0.00 | 0.00 | 42 | 1014.2 | |
| 20260504032016 | 8 | 0.0 | 0.0 | 0.00 | 0.00 | 0.00 | 42 | 1014.2 | |
| 20260504031516 | 9 | 0.0 | 0.0 | 0.00 | 0.00 | 0.00 | 41 | 1014.2 | |
| 20260504031016 | 9 | 0.0 | 0.0 | 0.00 | 0.00 | 0.00 | 40 | 1014.1 | |
| 20260504030517 | 10 | 0.0 | 0.0 | 0.00 | 0.00 | 0.00 | 38 | 1014.0 | |
| 20260504030016 | 10 | 0.0 | 0.0 | 0.00 | 0.00 | 0.00 | 37 | 1014.0 | |
| 20260504025516 | 10 | 0.0 | 0.0 | 0.00 | 0.00 | 0.00 | 36 | 1013.9 | |
| 20260504025016 | 11 | 0.0 | 0.0 | 0.00 | 0.00 | 0.00 | 35 | 1013.9 | |
| 20260504024516 | 11 | 0.0 | 0.0 | 0.00 | 0.00 | 0.00 | 32 | 1013.8 | |
| 20260504024036 | 11 | 0.0 | 0.0 | 0.00 | 0.00 | 0.00 | 32 | 1013.8 | |
| 20260504023537 | 11 | 0.0 | 0.0 | 0.00 | 0.00 | 0.00 | 32 | 1013.6 | |
| 20260504023016 | 12 | 0.0 | 0.0 | 0.00 | 0.00 | 0.00 | 30 | 1013.7 | |
| 20260504022516 | 12 | 0.0 | 0.0 | 0.00 | 0.00 | 0.00 | 28 | 1013.7 | |
| 20260504022017 | 12 | 0.0 | 0.0 | 0.00 | 0.00 | 0.00 | 28 | 1013.6 | |
| 20260504021516 | 13 | 0.0 | 1.6 | 0.00 | 0.00 | 0.00 | 27 | 1013.6 | |
| 20260504021016 | 13 | 0.0 | 1.6 | 0.00 | 0.00 | 0.00 | 27 | 1013.5 | |
| 20260504020516 | 13 | 270 | 1.6 | 3.2 | 0.00 | 0.00 | 0.00 | 26 | 1013.5 |
| 20260504020036 | 13 | 270 | 3.2 | 6.4 | 0.00 | 0.00 | 0.00 | 25 | 1013.6 |
| 20260504015516 | 13 | 270 | 3.2 | 9.7 | 0.00 | 0.00 | 0.00 | 26 | 1013.5 |
| 20260504015016 | 14 | 0.0 | 1.6 | 0.00 | 0.00 | 0.00 | 25 | 1013.5 | |
| 20260504014516 | 14 | 270 | 1.6 | 6.4 | 0.00 | 0.00 | 0.00 | 25 | 1013.5 |
| 20260504014017 | 15 | 270 | 3.2 | 6.4 | 0.00 | 0.00 | 0.00 | 25 | 1013.5 |
| 20260504013516 | 15 | 248 | 3.2 | 6.4 | 0.00 | 0.00 | 0.00 | 24 | 1013.5 |
| 20260504013016 | 15 | 270 | 4.8 | 11.3 | 0.00 | 0.00 | 0.00 | 23 | 1013.4 |
| 20260504012516 | 15 | 270 | 4.8 | 9.7 | 0.00 | 0.00 | 0.00 | 22 | 1013.5 |
| 20260504012016 | 15 | 270 | 6.4 | 12.9 | 0.00 | 0.00 | 0.00 | 22 | 1013.5 |
| 20260504011536 | 16 | 270 | 8.0 | 12.9 | 0.00 | 0.00 | 0.00 | 21 | 1013.5 |
| 20260504011016 | 16 | 270 | 8.0 | 11.3 | 0.00 | 0.00 | 0.00 | 22 | 1013.5 |
| 20260504010516 | 16 | 270 | 6.4 | 12.9 | 0.00 | 0.00 | 0.00 | 22 | 1013.5 |
| 20260504010016 | 17 | 270 | 6.4 | 12.9 | 0.00 | 0.00 | 0.00 | 21 | 1013.6 |
| 20260504005516 | 17 | 270 | 6.4 | 14.5 | 0.00 | 0.00 | 0.00 | 22 | 1013.5 |
| 20260504005016 | 17 | 270 | 8.0 | 12.9 | 0.00 | 0.00 | 0.00 | 22 | 1013.5 |
| 20260504004516 | 17 | 270 | 8.0 | 14.5 | 0.00 | 0.00 | 0.00 | 22 | 1013.6 |
| 20260504004036 | 17 | 270 | 8.0 | 16.1 | 0.00 | 0.00 | 0.00 | 20 | 1013.6 |
| 20260504003516 | 17 | 270 | 8.0 | 19.3 | 0.00 | 0.00 | 0.00 | 19 | 1013.5 |
| 20260504003017 | 17 | 270 | 9.7 | 22.5 | 0.00 | 0.00 | 0.00 | 18 | 1013.7 |
| 20260504002516 | 18 | 270 | 9.7 | 17.7 | 0.00 | 0.00 | 0.00 | 20 | 1013.7 |
| 20260504002016 | 18 | 270 | 8.0 | 16.1 | 0.00 | 0.00 | 0.00 | 18 | 1013.7 |
| 20260504001557 | 18 | 270 | 9.7 | 17.7 | 0.00 | 0.00 | 0.00 | 18 | 1013.7 |
| 20260504001016 | 18 | 270 | 9.7 | 19.3 | 0.00 | 0.00 | 0.00 | 19 | 1013.7 |
| 20260504000516 | 18 | 270 | 9.7 | 19.3 | 0.00 | 0.00 | 0.00 | 18 | 1013.8 |
| 20260504000016 | 18 | 270 | 14.5 | 27.4 | 0.00 | 0.00 | 0.00 | 16 | 1013.8 |
| 20260503235536 | 19 | 270 | 11.3 | 20.9 | 0.00 | 0.00 | 0.00 | 18 | 1013.8 |
| 20260503235016 | 19 | 270 | 12.9 | 25.7 | 0.00 | 0.00 | 0.00 | 18 | 1013.8 |
| 20260503234516 | 19 | 270 | 16.1 | 35.4 | 0.00 | 0.00 | 0.00 | 17 | 1013.8 |
| 20260503234016 | 18 | 270 | 11.3 | 25.7 | 0.00 | 0.00 | 0.00 | 16 | 1013.8 |
| 20260503233516 | 18 | 270 | 9.7 | 20.9 | 0.00 | 0.00 | 0.00 | 16 | 1013.8 |
| 20260503233016 | 19 | 270 | 12.9 | 24.1 | 0.00 | 0.00 | 0.00 | 16 | 1014.0 |
| 20260503232516 | 19 | 248 | 9.7 | 25.7 | 0.00 | 0.00 | 0.00 | 18 | 1013.9 |
| 20260503232017 | 20 | 270 | 11.3 | 29.0 | 0.00 | 0.00 | 0.00 | 18 | 1013.9 |
| 20260503231516 | 20 | 225 | 9.7 | 22.5 | 0.00 | 0.00 | 0.00 | 18 | 1013.9 |
| 20260503231017 | 20 | 248 | 9.7 | 24.1 | 0.00 | 0.00 | 0.00 | 18 | 1014.0 |
| 20260503230516 | 20 | 248 | 11.3 | 27.4 | 0.00 | 0.00 | 0.00 | 18 | 1014.0 |
| 20260503230016 | 20 | 270 | 16.1 | 25.7 | 0.00 | 0.00 | 0.00 | 18 | 1014.0 |
| 20260503225516 | 20 | 270 | 11.3 | 37.0 | 0.00 | 0.00 | 0.00 | 17 | 1014.0 |
| 20260503225016 | 20 | 270 | 14.5 | 29.0 | 0.00 | 0.00 | 0.00 | 17 | 1014.0 |
| 20260503224515 | 20 | 270 | 9.7 | 22.5 | 0.00 | 0.00 | 0.00 | 19 | 1014.1 |
| 20260503224016 | 20 | 270 | 16.1 | 27.4 | 0.00 | 0.00 | 0.00 | 19 | 1014.1 |
| 20260503223536 | 20 | 270 | 12.9 | 27.4 | 0.00 | 0.00 | 0.00 | 18 | 1014.0 |
| 20260503223016 | 20 | 293 | 19.3 | 33.8 | 0.00 | 0.00 | 0.00 | 18 | 1014.2 |
| 20260503222516 | 20 | 270 | 16.1 | 32.2 | 0.00 | 0.00 | 0.00 | 21 | 1014.2 |
| 20260503222016 | 21 | 270 | 19.3 | 32.2 | 0.00 | 0.00 | 0.00 | 18 | 1014.3 |
| 20260503221515 | 21 | 270 | 24.1 | 37.0 | 0.00 | 0.00 | 0.00 | 19 | 1014.4 |
| 20260503221015 | 21 | 270 | 12.9 | 25.7 | 0.00 | 0.00 | 0.00 | 22 | 1014.5 |
| 20260503220536 | 20 | 270 | 9.7 | 22.5 | 0.00 | 0.00 | 0.00 | 19 | 1014.5 |
| 20260503220016 | 20 | 270 | 16.1 | 38.6 | 0.00 | 0.00 | 0.00 | 19 | 1014.6 |
| 20260503215515 | 20 | 270 | 19.3 | 41.8 | 0.00 | 0.00 | 0.00 | 20 | 1014.6 |
| 20260503215015 | 21 | 270 | 16.1 | 32.2 | 0.00 | 0.00 | 0.00 | 19 | 1014.8 |
| 20260503214515 | 20 | 270 | 17.7 | 27.4 | 0.00 | 0.00 | 0.00 | 22 | 1014.7 |
| 20260503214016 | 21 | 270 | 14.5 | 33.8 | 0.00 | 0.00 | 0.00 | 20 | 1014.9 |
| 20260503213515 | 21 | 270 | 12.9 | 27.4 | 0.00 | 0.00 | 0.00 | 21 | 1015.0 |
| 20260503213015 | 21 | 270 | 16.1 | 30.6 | 0.00 | 0.00 | 0.00 | 21 | 1015.0 |
| 20260503212516 | 21 | 270 | 14.5 | 24.1 | 0.00 | 0.00 | 0.00 | 23 | 1015.1 |
| 20260503212015 | 21 | 270 | 16.1 | 30.6 | 0.00 | 0.00 | 0.00 | 21 | 1015.2 |
| 20260503211516 | 20 | 225 | 12.9 | 24.1 | 0.00 | 0.00 | 0.00 | 22 | 1015.1 |
| 20260503211015 | 20 | 270 | 11.3 | 29.0 | 0.00 | 0.00 | 0.00 | 21 | 1015.2 |
| 20260503210516 | 20 | 270 | 16.1 | 24.1 | 0.00 | 0.00 | 0.00 | 22 | 1015.2 |
| 20260503210015 | 20 | 248 | 11.3 | 20.9 | 0.00 | 0.00 | 0.00 | 21 | 1015.2 |
| 20260503205515 | 20 | 270 | 20.9 | 32.2 | 0.00 | 0.00 | 0.00 | 23 | 1015.3 |
| 20260503205035 | 20 | 270 | 12.9 | 32.2 | 0.00 | 0.00 | 0.00 | 22 | 1015.4 |
| 20260503204515 | 20 | 270 | 14.5 | 27.4 | 0.00 | 0.00 | 0.00 | 22 | 1015.4 |
| 20260503204015 | 20 | 270 | 20.9 | 38.6 | 0.00 | 0.00 | 0.00 | 22 | 1015.6 |
| 20260503203515 | 20 | 248 | 8.0 | 19.3 | 0.00 | 0.00 | 0.00 | 22 | 1015.5 |
| 20260503203036 | 20 | 225 | 11.3 | 27.4 | 0.00 | 0.00 | 0.00 | 20 | 1015.6 |
| 20260503202515 | 20 | 293 | 19.3 | 38.6 | 0.00 | 0.00 | 0.00 | 24 | 1016.1 |
| 20260503202036 | 20 | 270 | 22.5 | 37.0 | 0.00 | 0.00 | 0.00 | 21 | 1016.0 |
| 20260503201516 | 20 | 270 | 19.3 | 33.8 | 0.00 | 0.00 | 0.00 | 20 | 1016.1 |
| 20260503201015 | 20 | 270 | 19.3 | 32.2 | 0.00 | 0.00 | 0.00 | 20 | 1016.2 |
| 20260503200535 | 20 | 270 | 17.7 | 29.0 | 0.00 | 0.00 | 0.00 | 24 | 1016.1 |
| 20260503200015 | 20 | 270 | 20.9 | 38.6 | 0.00 | 0.00 | 0.00 | 21 | 1016.2 |
| 20260503195516 | 20 | 270 | 19.3 | 33.8 | 0.00 | 0.00 | 0.00 | 21 | 1016.1 |
| 20260503195016 | 21 | 293 | 19.3 | 33.8 | 0.00 | 0.00 | 0.00 | 23 | 1016.2 |
| 20260503194515 | 20 | 270 | 16.1 | 29.0 | 0.00 | 0.00 | 0.00 | 21 | 1016.3 |
| 20260503194015 | 20 | 293 | 19.3 | 29.0 | 0.00 | 0.00 | 0.00 | 23 | 1016.4 |
| 20260503193516 | 20 | 270 | 17.7 | 29.0 | 0.00 | 0.00 | 0.00 | 23 | 1016.5 |
| 20260503193015 | 20 | 270 | 19.3 | 38.6 | 0.00 | 0.00 | 0.00 | 22 | 1016.6 |
| 20260503192515 | 20 | 293 | 14.5 | 33.8 | 0.00 | 0.00 | 0.00 | 25 | 1016.6 |
| 20260503192015 | 20 | 293 | 19.3 | 33.8 | 0.00 | 0.00 | 0.00 | 25 | 1016.6 |
| 20260503191515 | 20 | 270 | 16.1 | 25.7 | 0.00 | 0.00 | 0.00 | 26 | 1016.8 |
| 20260503191015 | 20 | 248 | 14.5 | 27.4 | 0.00 | 0.00 | 0.00 | 25 | 1016.8 |
| 20260503190515 | 19 | 293 | 12.9 | 22.5 | 0.00 | 0.00 | 0.00 | 26 | 1016.8 |